Regional Weather Roundup
Issued by NWS

Home | Current Version | Previous Version | Graphics & Text | Print | Product List | Glossary On
Versions: 1 2 3 4 5 6 7 8 9 10 11 12 13 14 15 16 17 18 19 20 21 22 23 24 25 26 27 28 29 30 31 32 33 34 35 36 37 38 39 40 41 42 43 44 45 46 47 48 49 50
000
ASUS45 KPSR 030210
RWRAZ

ARIZONA HOURLY REGIONAL WEATHER ROUNDUP
NATIONAL WEATHER SERVICE PHOENIX AZ
700 PM MST TUE JUN 02 2015

NOTE: FAIR INDICATES FEW OR NO CLOUDS BELOW 12,000 FEET WITH NO
SIGNIFICANT WEATHER AND/OR OBSTRUCTIONS TO VISIBILITY.

AZZ001>003-036-030300-
NORTHWEST ARIZONA

CITY           SKY/WX    TMP DP  RH WIND       PRES   REMARKS
BULLHEAD CITY  CLEAR     99  14   4 S12G22    29.69S
KINGMAN        CLEAR     84  18   8 SW14      29.89S
$$

AZZ004>008-015-016-018-030300-
NORTH CENTRAL ARIZONA

CITY           SKY/WX    TMP DP  RH WIND       PRES   REMARKS
GRAND CANYON   CLEAR     73   6   7 SW14G24   30.10R
WILLIAMS       CLEAR     70  10  10 SW13G21   30.19S
PRESCOTT       CLEAR     78  16   9 SW14      30.03R
FLAGSTAFF      CLEAR     68  21  16 SW12G21   30.15S
PAYSON         CLEAR     79  19  11 SW8G15    30.07S
PAGE           CLEAR     88  17   7 S3        29.86R
$$

AZZ009>014-017-030300-
NORTHEAST ARIZONA

CITY           SKY/WX    TMP DP  RH WIND       PRES   REMARKS
WINSLOW        CLEAR     82  21  10 SW13      30.01R
SAINT JOHNS    CLEAR     81  16   9 W16G25    30.04R
WINDOW ROCK    CLEAR     76  16  10 W13       30.11R
SHOW LOW       CLEAR     73  19  13 SW10      30.14R
$$

AZZ023-030300-
GREATER PHOENIX AREA

CITY           SKY/WX    TMP DP  RH WIND       PRES   REMARKS
PHOENIX        CLEAR     99  19   5 W17G23    29.74F
BUCKEYE        CLEAR     93  18   6 W9        29.76S
GLENDALE       CLEAR     99  16   5 SW12      29.76S
LUKE AFB       CLEAR     96  20   6 W8        29.74S
DEER VALLEY    CLEAR     95  16   5 SW12      29.77S
SCOTTSDALE     CLEAR     97  16   5 W7        29.79S
MESA-FALCON    CLEAR     97  16   5 W7        29.77S
MESA-GATEWAY   CLEAR     97  25   7 NW12      29.79S
CHANDLER       CLEAR     99  23   6 W7        29.76S
$$

AZZ027-028-030300-
SOUTHWEST MARICOPA COUNTY AND PINAL COUNTY

CITY           SKY/WX    TMP DP  RH WIND       PRES   REMARKS
CASA GRANDE    CLEAR     97  32  10 W13       29.78R
GILA BEND      CLEAR     97  19   6 W12       29.74S
$$

AZZ503-504-507>509-030300-
SOUTHEAST ARIZONA

CITY           SKY/WX    TMP DP  RH WIND       PRES   REMARKS
TUCSON         CLEAR     97  21   6 W12       29.87S
DAVIS-MONTHAN  CLEAR     95  21   7 W8        29.86R
RYAN FIELD     CLEAR     99  32   9 W9        29.80F
NOGALES        LGT RAIN  87  24  10 SW12      30.00R
SIERRA VISTA   CLEAR     84  13   7 SW15      30.05R
DOUGLAS        CLEAR     87  21   9 W17       29.99R
SAFFORD        MOCLDY    95  25   8 NW18      29.84R
$$

AZZ020-021-025-026-031-030300-
SOUTHWEST ARIZONA

CITY           SKY/WX    TMP DP  RH WIND       PRES   REMARKS
YUMA           CLEAR     96  32  10 W8        29.73R
$$

CAZ031-033-041-043-047-048-061-030300-
SOUTHERN CALIFORNIA

CITY           SKY/WX    TMP DP  RH WIND       PRES   REMARKS
DOWNTOWN L.A.  SUNNY     70  57  63 VRB5      29.92R
L.A. AIRPORT   MOSUNNY   64  58  80 W10       29.93S
SAN DIEGO      PTCLDY    66  55  67 W8        29.96S
BURBANK        SUNNY     72  54  53 S10       29.91R
ONTARIO        CLEAR     75  51  43 W13       29.91R
RIVERSIDE      CLEAR     75  54  47 W10       29.90S
PALM SPRINGS   CLEAR     93  39  15 NW15G25   29.74S
EL CENTRO NAS  PTCLDY    90  31  12 SW26      29.76R
IMPERIAL       CLEAR     90  35  14 W21G30    29.73R
BLYTHE         CLEAR     97  22   7 SW20      29.71S
NEEDLES        CLEAR     98   6   3 SW14      29.72R
$$

NVZ020-UTZ003-030300-
SOUTHERN NEVADA-UTAH

CITY           SKY/WX    TMP DP  RH WIND       PRES   REMARKS
LAS VEGAS      CLEAR     92  19   7 S15       29.72S
SALT LAKE CITY PTCLDY    75  47  36 N9        29.90S
$$

NMZ009-TXZ055-030300-
NEW MEXICO-WEST TEXAS

CITY           SKY/WX    TMP DP  RH WIND       PRES   REMARKS
ALBUQUERQUE    PTCLDY    87  18   8 CALM      29.98S
EL PASO        PTCLDY    94  14   5 W10       29.91R
$$


........................KEY........................
SKY/WX - SKY CONDITION/WEATHER
TMP    - TEMPERATURE IN FAHRENHEIT
DP     - DEW POINT IN FAHRENHEIT
RH     - RELATIVE HUMIDITY IN PERCENT
WIND   - DIRECTION AND SPEED IN MILES PER HOUR (MPH)
VRB    - VARIABLE WIND DIRECTION
PRES   - MEAN SEA LEVEL PRESSURE IN INCHES OF MERCURY
         F - FALLING PRESSURE   R - RISING PRESSURE
         S - STEADY PRESSURE
VSB    - VISIBILITY IN MILES
HX     - HEAT INDEX IN FAHRENHEIT
WCI    - WIND CHILL INDEX IN FAHRENHEIT
TC     - TEMPERATURE IN CELSIUS WHICH IS ALSO KNOWN AS
         TEMPERATURE IN CENTIGRADE
AFB    - AIR FORCE BASE
         LUKE AFB IS LUKE AIR FORCE BASE
         DAVIS-MONTHAN IS DAVIS-MONTHAN AIR FORCE BASE
NAS    - NAVAL AIR STATION
         EL CENTRO NAS IS EL CENTRO NAVAL AIR STATION
N/A    - NOT AVAILABLE



USA.gov is the U.S. government's official web portal to all federal, state and local government web resources and services.